Location: Bayshore Village Mobile Home Park
(26.6945°N, 81.8642°W)
Time: 22:17:00
(UTC+00:00)

Cosmos 1943 Rocket - Pass Details

Date: 17 June 2021
Orbit: 813 x 843 km, 71.0° (Epoch: 31 July)

Event Time Altitude Azimuth Distance (km) Brightness Sun altitude
Rises 07:28:25 0° 329° (NNW) 3,337 5.6 -32.1°
Reaches altitude 10° 07:31:02 10° 320° (NW) 2,405 4.7 -31.8°
Enters shadow 07:32:00 15° 314° (NW) 2,083 4.3 -31.7°
